Regional Weather Roundup
Issued by NWS

Home | Current Version | Previous Version | Text Only | Print | Product List | Glossary On
Versions: 1 2 3 4 5 6 7 8 9 10 11 12 13 14 15 16 17 18 19 20 21 22 23 24 25 26 27 28 29 30 31 32 33 34 35 36 37 38 39 40 41 42 43 44 45 46 47 48 49 50
053
ASUS42 KKEY 010210
RWRKEY

FLORIDA REGIONAL WEATHER ROUNDUP FOR THE FLORIDA KEYS
NATIONAL WEATHER SERVICE KEY WEST FLORIDA
1000 PM EDT SUN APR 30 2017

...SOUTH FLORIDA AND THE KEYS...

CITY           SKY/WX    TMP DP  RH WIND       PRES   REMARKS
FORT MYERS     PTCLDY    80  70  71 E7        30.07R
SW REGIONAL AP CLEAR     79  68  69 E10       30.08R
NAPLES         CLEAR     80  69  69 E12       30.07R
MIAMI          MOCLDY    80  71  74 E21G29    30.09R
WEST KENDALL   MOCLDY    79  72  79 E20G26    30.08R
HOMESTEAD      PTCLDY    78  75  89 E18G24    30.08R
MARATHON       PTCLDY    81  74  79 E10G23    30.05R
BOCA CHICA NAS PTCLDY    79  70  74 SE23G31   30.05R
KEY WEST INTL  PTCLDY    80  74  81 SE22G30   30.06R

...INTERNATIONAL WEATHER...

CITY           SKY/WX    TMP DP  RH WIND       PRES   REMARKS
NASSAU BAHAMAS PTCLDY    81  64  57 E15       30.14R
CANCUN MEXICO  PTCLDY    81  79  94 E14       29.92R
COZUMEL MEXICO PTCLDY    81  77  89 SE10      29.88S

ADJACENT COASTAL WATERS...

STATION/POSITION TIME  SKY/WX   TEMP    WIND        PRES    WAVE
                                AIR SEA DIR/SP/G            HT/PER
                 (UTC)          (F)     (DEG/KT/KT) (MB)    (FT/S)
PULASKI SHOAL LI 0200            80     120/ 22/ 24 1017.1R
SAND KEY         0150            80     130/ 22/ 27 1017.9R
LONG KEY         0100            80 81  120/ 18/ 20 1017.5R
MOLASSES REEF    0100            79 80  100/ 14/ 15 1018.0R
FOWEY ROCKS      0100            79 80   90/ 22/ 24 1018.9R
Buoy 42097       0200                                 N/A     5/ 6

$$




USA.gov is the U.S. government's official web portal to all federal, state and local government web resources and services.